Upstream stations:
Downstream station:
SHEF ID: DRMK1 NF Cottonwood Rvr nr Durham, KS
STATION TYPE:
PRECIP STAGE RIV-FLOW BAT-LOAD
in ft cfs volt
Ccp-Rev Ccp-Rev Ccp-Rev Ccp-Rev
(US/Central)
09/06 00:00 0.00 10.09 14 12.56
09/06 01:00 0.00 10.07 13 12.53
09/06 02:00 0.00 10.04 11 12.51
09/06 03:00 0.00 10.02 10 12.49
09/06 04:00 0.00 9.99 9 12.48
09/06 05:00 0.00 9.97 9 12.46
09/06 06:00 0.00 9.94 8 12.44
09/06 07:00 0.00 9.93 7 12.42
09/06 08:00 0.00 9.91 7 12.48
09/06 09:00 0.00 9.89 6 13.45
09/06 10:00 0.00 9.87 5 13.63
09/06 11:00 0.00 9.86 5 13.53
09/06 12:00 0.00 9.84 5 13.12
09/06 13:00 0.00 9.83 5 13.12
09/06 14:00 0.00 9.81 4 13.11
09/06 15:00 0.00 9.80 4 13.22
09/06 16:00 0.00 9.79 4 12.99
09/06 17:00 0.00 9.77 3 12.97
09/06 18:00 0.00 9.76 3 12.96
09/06 19:00 0.00 9.75 3 12.96
09/06 20:00 0.00 9.74 3 12.76
09/06 21:00 0.00 9.73 3 12.67
09/06 22:00 0.00 9.72 3 12.63
09/06 23:00 ---- ---- ---- ----